THORAD AGENA D DEB, 42551

Orbit data source: Space-Track

THORAD AGENA D DEB, 42551 is space debris in SSO originally from a launch on Wed, 08 Apr 1970 UTC launched from the Air Force Western Test Range (AFWTR). Debris objects in space refer to the collection of defunct objects orbiting the Earth. Examples of debris include non-operational satellites, rocket bodies, and fragments generated from explosions, collisions, or faulty payload assembly.

Loading next visibility...
Identifier
42551, 1970-025TH
Orbit
SSO
Country
Flag of USUS
Related business
Manufacturer
Unknown
Mission
Spacecraft
Bus & Motor
Unknown
Mass
Unknown
Launch date (UTC)
1970-04-08 (56 years ago)
Launch vehicle
Unknown
Launch site
Air Force Western Test Range (AFWTR)
Object type
Payload
Rocket body
Debris
Shape & HBR
Unknown shape, 0.1 m
Radar Cross Section
Small (<0.1 m²)

Expand to show TLE details & history
Last TLE update: 3 days ago

TLE from 3 days ago
0 THORAD AGENA D DEB
1 42551U 70025TH  26170.01675210  .00000949  00000-0  65651-3 0  9997
2 42551  99.9747 244.0341 0012258  60.9120 299.3269 14.01959892639891
Epoch: 2026-06-19T00:24Z
TLE epoch observation values (Epoch: 2026-06-19T00:24:07.381Z)
Latitude
0.00006°
Longitude
-29.24844°
Altitude
885.509 km
Speed
7.412 km/s
True Right ascension
16h 16m 08s
True Declination
0° 00' 00"
Sunlit
Object was in full shadow at epoch
Visualization orbit readout
Latitude
Unknown
Longitude
Unknown
Altitude
Unknown
Speed
Unknown
Apparent Right ascension
Unknown
Apparent Declination
Unknown
Sunlit
N/A
Visualization observer readout
Local Sidereal Time
21:48:35
Azimuth
Unknown
Elevation
Unknown
Doppler factor
Unknown
Orbital elements
Apogee altitude
893.166 km
Perigee altitude
875.361 km
Semi-major axis
7,262.4 km
Eccentricity
0.00123
Inclination
99.9747°
RAAN
244.0341°
Arg. of periapsis
60.912°
True anomaly
299.20434°
Mean anomaly
299.3269°
Eccentric anomaly
299.26563°
Mean motion
3.5069 °/min
Orbital period
102.65 mins
BSTAR
0.00065651

Documentation

Showing up to 5 results
|